2023/06/30 00:00:00,162.7,21.2
2023/06/30 00:10:00,162.7,20.8
2023/06/30 00:20:00,162.7,21.3
2023/06/30 00:30:00,162.7,21.3
2023/06/30 00:40:00,162.7,21.5
2023/06/30 00:50:00,162.7,21.2
2023/06/30 01:00:00,162.7,21.2
2023/06/30 01:10:00,162.7,21.0
2023/06/30 01:20:00,162.7,21.5
2023/06/30 01:30:00,162.7,21.7
2023/06/30 01:40:00,162.7,21.1
2023/06/30 01:50:00,162.7,21.2
2023/06/30 02:00:00,162.7,21.4
2023/06/30 02:10:00,162.7,21.9
2023/06/30 02:20:00,162.7,21.6
2023/06/30 02:30:00,162.7,22.0
2023/06/30 02:40:00,162.7,21.2
2023/06/30 02:50:00,162.7,21.4
2023/06/30 03:00:00,162.7,21.0
2023/06/30 03:10:00,162.7,21.0
2023/06/30 03:20:00,162.7,21.2
2023/06/30 03:30:00,162.7,21.3
2023/06/30 03:40:00,162.7,21.4
2023/06/30 03:50:00,162.7,21.1
2023/06/30 04:00:00,162.7,21.3
2023/06/30 04:10:00,162.7,21.5
2023/06/30 04:20:00,162.7,21.5
2023/06/30 04:30:00,162.7,21.9
2023/06/30 04:40:00,162.7,21.5
2023/06/30 04:50:00,162.7,21.8
2023/06/30 05:00:00,162.7,22.5
2023/06/30 05:10:00,162.7,21.7
2023/06/30 05:20:00,162.7,21.8
2023/06/30 05:30:00,162.7,21.9
2023/06/30 05:40:00,162.7,21.6
2023/06/30 05:50:00,162.7,22.3
2023/06/30 06:00:00,162.7,22.4
2023/06/30 06:10:00,162.7,22.0
2023/06/30 06:20:00,162.7,21.9
2023/06/30 06:30:00,162.7,22.6
2023/06/30 06:40:00,162.6,22.8
2023/06/30 06:50:00,162.6,22.5
2023/06/30 07:00:00,162.6,22.7
2023/06/30 07:10:00,162.6,23.1
2023/06/30 07:20:00,162.6,23.1
2023/06/30 07:30:00,162.6,24.0
2023/06/30 07:40:00,162.6,24.0
2023/06/30 07:50:00,162.6,23.7
2023/06/30 08:00:00,162.6,24.0
2023/06/30 08:10:00,162.6,24.0
2023/06/30 08:20:00,162.6,23.7
2023/06/30 08:30:00,162.6,23.1
2023/06/30 08:40:00,162.6,23.7
2023/06/30 08:50:00,162.6,23.8
2023/06/30 09:00:00,162.6,24.2
2023/06/30 09:10:00,162.6,24.1
2023/06/30 09:20:00,162.6,24.4
2023/06/30 09:30:00,162.6,24.6
2023/06/30 09:40:00,162.6,24.3
2023/06/30 09:50:00,162.6,23.8
2023/06/30 10:00:00,162.6,24.2
2023/06/30 10:10:00,162.6,23.9
2023/06/30 10:20:00,162.6,24.1
2023/06/30 10:30:00,162.6,24.0
2023/06/30 10:40:00,162.6,23.7
2023/06/30 10:50:00,162.6,24.0
2023/06/30 11:00:00,162.6,24.3
2023/06/30 11:10:00,162.6,24.6
2023/06/30 11:20:00,162.6,24.8
2023/06/30 11:30:00,162.6,24.8
2023/06/30 11:40:00,162.6,25.5
2023/06/30 11:50:00,162.6,25.6
2023/06/30 12:00:00,162.6,26.1
2023/06/30 12:10:00,162.6,26.2
2023/06/30 12:20:00,162.6,25.8
2023/06/30 12:30:00,162.6,25.6
2023/06/30 12:40:00,162.6,25.1
2023/06/30 12:50:00,162.6,25.4
2023/06/30 13:00:00,162.6,25.1
2023/06/30 13:10:00,162.6,25.2
2023/06/30 13:20:00,162.6,24.5
2023/06/30 13:30:00,162.6,23.0
2023/06/30 13:40:00,162.6,22.1
2023/06/30 13:50:00,162.6,21.6
2023/06/30 14:00:00,162.6,21.8
2023/06/30 14:10:00,162.6,21.7
2023/06/30 14:20:00,162.6,21.8
2023/06/30 14:30:00,162.6,21.6
2023/06/30 14:40:00,162.6,21.6
2023/06/30 14:50:00,162.6,21.6
2023/06/30 15:00:00,162.6,21.5
2023/06/30 15:10:00,162.6,21.2
2023/06/30 15:20:00,162.6,21.2
2023/06/30 15:30:00,162.6,21.0
2023/06/30 15:40:00,162.6,21.1
2023/06/30 15:50:00,162.6,21.2
2023/06/30 16:00:00,162.6,20.8
2023/06/30 16:10:00,162.6,21.1
2023/06/30 16:20:00,162.6,20.8
2023/06/30 16:30:00,162.6,20.9
2023/06/30 16:40:00,162.6,20.8
2023/06/30 16:50:00,162.6,20.8
2023/06/30 17:00:00,162.6,20.9
2023/06/30 17:10:00,162.6,20.9
2023/06/30 17:20:00,162.6,20.9
2023/06/30 17:30:00,162.6,20.8
2023/06/30 17:40:00,162.6,21.0
2023/06/30 17:50:00,162.6,20.8
2023/06/30 18:00:00,162.6,20.6
2023/06/30 18:10:00,162.6,20.7
2023/06/30 18:20:00,162.6,20.5
2023/06/30 18:30:00,162.6,20.7
2023/06/30 18:40:00,162.6,20.4
2023/06/30 18:50:00,162.6,20.6
2023/06/30 19:00:00,162.6,20.6
2023/06/30 19:10:00,162.6,20.4
2023/06/30 19:20:00,162.6,20.3
2023/06/30 19:30:00,162.6,20.2
2023/06/30 19:40:00,162.6,20.4
2023/06/30 19:50:00,162.6,20.0
2023/06/30 20:00:00,162.6,20.0
2023/06/30 20:10:00,162.6,20.3
2023/06/30 20:20:00,162.6,20.0
2023/06/30 20:30:00,162.6,19.8
2023/06/30 20:40:00,162.6,19.9
2023/06/30 20:50:00,162.6,19.7
2023/06/30 21:00:00,162.6,19.8
2023/06/30 21:10:00,162.6,19.7
2023/06/30 21:20:00,162.6,19.7
2023/06/30 21:30:00,162.6,19.8
2023/06/30 21:40:00,162.6,19.8
2023/06/30 21:50:00,162.6,19.6
2023/06/30 22:00:00,162.6,19.6
2023/06/30 22:10:00,162.6,19.5
2023/06/30 22:20:00,162.6,19.7
2023/06/30 22:30:00,162.6,19.5
2023/06/30 22:40:00,162.6,19.5
2023/06/30 22:50:00,162.6,19.8
2023/06/30 23:00:00,162.6,19.4
2023/06/30 23:10:00,162.6,19.7
2023/06/30 23:20:00,162.6,19.8
2023/06/30 23:30:00,162.6,19.8
2023/06/30 23:40:00,162.6,19.8
2023/06/30 23:50:00,162.6,19.8
